CW5102 Weather Reports


time (UTC)temp
C
wind
direction
speed
KPH
gust
KPH
rain 1hr
cm
rain 24hr
cm
rain mn
cm
humidity
%
barometer
mb
20260502212703 18 353 0.0 20.9 0.00 0.00 0.00 28 1011.2
20260502212204 18 297 1.6 20.9 0.00 0.00 0.00 27 1011.3
20260502211203 19 312 3.2 14.5 0.00 0.00 0.00 26 1011.5
20260502210703 19 301 4.8 19.3 0.00 0.00 0.00 26 1011.6
20260502210203 19 355 3.2 19.3 0.00 0.00 0.00 27 1011.6
20260502205702 18 335 1.6 14.5 0.00 0.00 0.00 26 1011.8
20260502204703 20 266 3.2 19.3 0.00 0.00 0.00 25 1012.0
20260502204203 19 322 4.8 19.3 0.00 0.00 0.00 26 1012.1
20260502203703 19 306 1.6 16.1 0.00 0.00 0.00 27 1012.1
20260502202703 19 343 4.8 19.3 0.00 0.00 0.00 26 1012.4
20260502202203 19 331 1.6 16.1 0.00 0.00 0.00 28 1012.4
20260502201703 19 313 3.2 19.3 0.00 0.00 0.00 28 1012.6
20260502201204 19 279 6.4 19.3 0.00 0.00 0.00 27 1012.6
20260502200703 18 314 1.6 11.3 0.00 0.00 0.00 27 1012.7
20260502200203 18 213 3.2 12.9 0.00 0.00 0.00 27 1012.8
20260502195703 18 1 1.6 16.1 0.00 0.00 0.00 27 1012.9
20260502195203 18 337 3.2 16.1 0.00 0.00 0.00 28 1013.1
20260502194704 18 326 1.6 24.1 0.00 0.00 0.00 27 1013.1
20260502194203 18 331 3.2 24.1 0.00 0.00 0.00 28 1013.3
20260502193703 18 324 4.8 20.9 0.00 0.00 0.00 27 1013.4
20260502193203 18 326 3.2 19.3 0.00 0.00 0.00 28 1013.4
20260502192703 18 334 4.8 19.3 0.00 0.00 0.00 28 1013.5
20260502192203 18 312 3.2 12.9 0.00 0.00 0.00 28 1013.6
20260502191204 18 301 1.6 19.3 0.00 0.00 0.00 28 1013.7
20260502190703 17 344 1.6 16.1 0.00 0.00 0.00 29 1013.9
20260502190202 17 348 3.2 19.3 0.00 0.00 0.00 28 1013.9
20260502185703 17 344 3.2 19.3 0.00 0.00 0.00 27 1014.1
20260502185203 17 324 4.8 19.3 0.00 0.00 0.00 29 1014.2
20260502184703 17 312 3.2 19.3 0.00 0.00 0.00 28 1014.3
20260502184204 17 17 3.2 24.1 0.00 0.00 0.00 26 1014.3
20260502183703 17 358 3.2 24.1 0.00 0.00 0.00 28 1014.4
20260502183203 16 260 6.4 16.1 0.00 0.00 0.00 29 1014.6
20260502182703 16 340 4.8 16.1 0.00 0.00 0.00 28 1014.7
20260502182203 16 238 4.8 19.3 0.00 0.00 0.00 28 1014.7
20260502181703 16 327 1.6 19.3 0.00 0.00 0.00 30 1014.9
20260502181203 16 219 1.6 19.3 0.00 0.00 0.00 31 1015.0
20260502180703 16 227 8.0 19.3 0.00 0.00 0.00 30 1015.1
20260502180203 16 260 1.6 11.3 0.00 0.00 0.00 31 1015.1
20260502170203 14 303 3.2 12.9 0.00 0.00 0.00 31 1016.1
20260502164204 13 284 3.2 16.1 0.00 0.00 0.00 32 1016.3
20260502163703 13 297 0.0 16.1 0.00 0.00 0.00 32 1016.3
20260502162703 13 23 1.6 20.9 0.00 0.00 0.00 31 1016.5
20260502162203 13 338 3.2 20.9 0.00 0.00 0.00 32 1016.6
20260502161703 13 325 3.2 16.1 0.00 0.00 0.00 33 1016.6
20260502160703 12 34 0.0 9.7 0.00 0.00 0.00 36 1016.7
20260502160203 12 323 0.0 8.0 0.00 0.00 0.00 35 1016.7
20260502152204 11 6 1.6 16.1 0.00 0.00 0.00 38 1017.1
20260502151704 11 350 1.6 16.1 0.00 0.00 0.00 41 1017.2
20260502151203 11 247 1.6 16.1 0.00 0.00 0.00 41 1017.2
20260502150703 11 357 3.2 16.1 0.00 0.00 0.00 39 1017.2
20260502150203 11 276 1.6 11.3 0.00 0.00 0.00 42 1017.3
20260502130703 6 0 0.0 9.7 0.00 0.00 0.00 52 1017.6
20260502130204 6 0 0.0 11.3 0.00 0.00 0.00 53 1017.7
20260502123704 5 4 0.0 4.8 0.00 0.00 0.00 57 1017.6
20260502122703 5 334 0.0 4.8 0.00 0.00 0.00 57 1017.6
20260502121204 5 333 0.0 0.0 0.00 0.00 0.00 58 1017.4
20260502120203 5 333 0.0 4.8 0.00 0.00 0.00 58 1017.5
20260502115703 5 333 0.0 4.8 0.00 0.00 0.00 57 1017.5
20260502115204 5 330 0.0 1.6 0.00 0.00 0.00 58 1017.5
20260502114704 4 330 0.0 1.6 0.00 0.00 0.00 58 1017.5
20260502113704 4 330 0.0 0.0 0.00 0.00 0.00 58 1017.5
20260502113204 4 330 0.0 3.2 0.00 0.00 0.00 58 1017.5
20260502112203 4 265 0.0 0.0 0.00 0.00 0.00 59 1017.4
20260502111704 4 265 0.0 0.0 0.00 0.00 0.00 59 1017.4
20260502111204 4 265 0.0 0.0 0.00 0.00 0.00 60 1017.3
20260502110704 4 265 0.0 0.0 0.00 0.00 0.00 59 1017.3
20260502105203 4 265 0.0 3.2 0.00 0.00 0.00 60 1017.3
20260502104703 4 265 0.0 4.8 0.00 0.00 0.00 60 1017.2
20260502103704 4 286 0.0 0.0 0.00 0.00 0.00 60 1017.3
20260502103204 4 286 0.0 3.2 0.00 0.00 0.00 59 1017.2
20260502102203 4 286 0.0 3.2 0.00 0.00 0.00 59 1017.4
20260502101204 4 286 0.0 3.2 0.00 0.00 0.00 58 1017.2
20260502091203 5 290 0.0 4.8 0.00 0.00 0.00 55 1017.1
20260502090703 5 289 0.0 9.7 0.00 0.00 0.00 54 1017.1
20260502090204 5 289 0.0 11.3 0.00 0.00 0.00 54 1017.1
20260502071203 5 287 1.6 4.8 0.00 0.00 0.00 54 1017.4
20260502070703 5 287 0.0 4.8 0.00 0.00 0.00 55 1017.5
20260502065702 5 287 1.6 9.7 0.00 0.00 0.00 54 1017.6
20260502064703 5 286 1.6 14.5 0.00 0.00 0.00 53 1017.6
20260502064202 5 286 0.0 3.2 0.00 0.00 0.00 54 1017.6
20260502063702 5 286 0.0 3.2 0.00 0.00 0.00 53 1017.7
20260502063203 5 286 0.0 4.8 0.00 0.00 0.00 53 1017.6
20260502062702 6 286 0.0 4.8 0.00 0.00 0.00 53 1017.7
20260502062202 6 286 0.0 4.8 0.00 0.00 0.00 53 1017.7
20260502061702 6 286 0.0 4.8 0.00 0.00 0.00 53 1017.7
20260502061202 6 286 0.0 3.2 0.00 0.00 0.00 54 1017.8
20260502060702 6 286 0.0 3.2 0.00 0.00 0.00 54 1017.7
20260502055702 6 286 0.0 4.8 0.00 0.00 0.00 53 1017.7
20260502054202 6 286 0.0 3.2 0.00 0.00 0.00 53 1017.8
20260502053702 6 286 0.0 3.2 0.00 0.00 0.00 52 1017.7
20260502053203 6 286 0.0 3.2 0.00 0.00 0.00 53 1017.8
20260502052702 6 286 0.0 4.8 0.00 0.00 0.00 52 1017.8
20260502052202 6 286 0.0 4.8 0.00 0.00 0.00 51 1017.8
20260502051203 6 285 0.0 0.0 0.00 0.00 0.00 50 1017.8
20260502050702 6 285 0.0 1.6 0.00 0.00 0.00 50 1017.8
20260502050203 6 286 0.0 3.2 0.00 0.00 0.00 49 1017.7
20260502045702 6 285 0.0 4.8 0.00 0.00 0.00 48 1017.6
20260502045202 6 285 0.0 4.8 0.00 0.00 0.00 48 1017.6
20260502044703 6 285 0.0 3.2 0.00 0.00 0.00 48 1017.6
20260502044203 6 285 0.0 1.6 0.00 0.00 0.00 47 1017.6
20260502043703 6 309 0.0 0.0 0.00 0.00 0.00 48 1017.7
20260502043203 6 309 0.0 0.0 0.00 0.00 0.00 46 1017.7
20260502042702 6 309 0.0 0.0 0.00 0.00 0.00 45 1017.6
20260502042202 6 309 0.0 0.0 0.00 0.00 0.00 45 1017.7
20260502041702 6 309 0.0 0.0 0.00 0.00 0.00 45 1017.6
20260502041202 6 309 0.0 0.0 0.00 0.00 0.00 45 1017.7
20260502040702 6 309 0.0 0.0 0.00 0.00 0.00 45 1017.6
20260502040202 6 309 0.0 0.0 0.00 0.00 0.00 45 1017.7
20260502035703 6 309 0.0 0.0 0.00 0.00 0.00 45 1017.7
20260502035203 6 309 0.0 0.0 0.00 0.00 0.00 45 1017.7
20260502034203 7 330 0.0 0.0 0.00 0.00 0.00 44 1017.7
20260502033703 7 333 0.0 0.0 0.00 0.00 0.00 45 1017.8
20260502033203 7 334 0.0 0.0 0.00 0.00 0.00 45 1017.8
20260502032702 7 346 0.0 0.0 0.00 0.00 0.00 44 1017.8
20260502032204 7 349 0.0 0.0 0.00 0.00 0.00 45 1017.8
20260502031702 7 0 0.0 0.0 0.00 0.00 0.00 44 1017.8
20260502031202 7 0 0.0 0.0 0.00 0.00 0.00 42 1017.7
20260502030702 7 0 0.0 0.0 0.00 0.00 0.00 42 1017.8
20260502025703 7 0 0.0 0.0 0.00 0.00 0.00 41 1017.8
20260502025202 7 0 0.0 0.0 0.00 0.00 0.00 42 1017.7
20260502024703 7 0 0.0 0.0 0.00 0.00 0.00 41 1017.8
20260502024202 7 0 0.0 0.0 0.00 0.00 0.00 41 1017.8
20260502023702 7 0 0.0 0.0 0.00 0.00 0.00 41 1017.8
20260502022202 7 0 0.0 0.0 0.00 0.00 0.00 39 1017.8
20260502021703 7 0 0.0 0.0 0.00 0.00 0.00 39 1017.7
20260502021202 8 0 0.0 0.0 0.00 0.00 0.00 39 1017.7
20260502020202 8 0 0.0 0.0 0.00 0.00 0.00 37 1017.6
20260502015703 8 0 0.0 0.0 0.00 0.00 0.00 38 1017.5
20260502015203 8 0 0.0 0.0 0.00 0.00 0.00 38 1017.5
20260502014202 8 0 0.0 0.0 0.00 0.00 0.00 36 1017.4
20260502013703 8 0 0.0 0.0 0.00 0.00 0.00 35 1017.3
20260502013204 9 0 0.0 0.0 0.00 0.00 0.00 35 1017.3
20260502012702 9 0 0.0 0.0 0.00 0.00 0.00 35 1017.2
20260502011702 9 0 0.0 0.0 0.00 0.00 0.00 33 1017.2
20260502011203 10 0 0.0 0.0 0.00 0.00 0.00 33 1017.2
20260502010703 10 0 0.0 0.0 0.00 0.00 0.00 33 1017.2
20260502010203 10 0 0.0 0.0 0.00 0.00 0.00 33 1017.2
20260502005703 10 0 0.0 0.0 0.00 0.00 0.00 31 1017.2
20260502005203 10 0 0.0 0.0 0.00 0.00 0.00 31 1017.1
20260502004703 10 0 0.0 3.2 0.00 0.00 0.00 31 1017.2
20260502004203 10 0 1.6 3.2 0.00 0.00 0.00 31 1017.2
20260502003702 10 0 1.6 4.8 0.00 0.00 0.00 31 1017.2
20260502003204 10 0 1.6 9.7 0.00 0.00 0.00 31 1017.3
20260502002702 10 2 0.0 9.7 0.00 0.00 0.00 30 1017.3
20260502002202 10 40 0.0 9.7 0.00 0.00 0.00 30 1017.2
20260502001703 10 40 1.6 9.7 0.00 0.00 0.00 29 1017.2
20260502001203 10 40 0.0 4.8 0.00 0.00 0.00 30 1017.2
20260502000702 11 40 0.0 11.3 0.00 0.00 0.00 29 1017.1
20260502000203 11 44 1.6 12.9 0.00 0.00 0.00 28 1017.1
20260501235703 11 22 1.6 12.9 0.00 0.00 0.00 28 1017.2
20260501235203 11 1 3.2 12.9 0.00 0.00 0.00 28 1017.2
20260501234203 11 45 0.0 14.5 0.00 0.00 0.00 26 1017.1
20260501233703 11 10 1.6 16.1 0.00 0.00 0.00 27 1017.1
20260501233203 12 46 0.0 16.1 0.00 0.00 0.00 26 1017.1
20260501232702 12 61 4.8 14.5 0.00 0.00 0.00 25 1017.1
20260501232204 12 41 0.0 14.5 0.00 0.00 0.00 29 1017.1
20260501231703 12 5 1.6 14.5 0.00 0.00 0.00 28 1017.1
20260501231203 12 88 0.0 4.8 0.00 0.00 0.00 30 1017.0
20260501230703 12 111 0.0 4.8 0.00 0.00 0.00 29 1017.1
20260501230203 12 43 1.6 11.3 0.00 0.00 0.00 29 1017.1
20260501225703 12 83 3.2 11.3 0.00 0.00 0.00 32 1017.1
20260501225203 12 337 1.6 11.3 0.00 0.00 0.00 28 1017.1
20260501224704 12 0 1.6 11.3 0.00 0.00 0.00 26 1017.1
20260501224203 12 30 1.6 12.9 0.00 0.00 0.00 28 1017.1
20260501223203 12 32 1.6 12.9 0.00 0.00 0.00 27 1017.2
20260501222703 12 40 1.6 14.5 0.00 0.00 0.00 28 1017.3
20260501222203 12 24 6.4 16.1 0.00 0.00 0.00 27 1017.3
20260501221703 12 15 1.6 16.1 0.00 0.00 0.00 28 1017.3
20260501221203 12 11 3.2 14.5 0.00 0.00 0.00 28 1017.3
20260501220703 12 55 0.0 8.0 0.00 0.00 0.00 29 1017.3
20260501220202 11 0 1.6 8.0 0.00 0.00 0.00 31 1017.3
20260501215702 12 32 3.2 8.0 0.00 0.00 0.00 28 1017.2
20260501215202 12 34 0.0 12.9 0.00 0.00 0.00 29 1017.3
20260501214703 12 25 3.2 12.9 0.00 0.00 0.00 27 1017.2
20260501213703 12 28 1.6 19.3 0.00 0.00 0.00 26 1017.2
20260501213203 12 16 1.6 19.3 0.00 0.00 0.00 27 1017.3